[[{"header":{"parameterUnit":"m.s-1","parameterCategory":1,"la1":30.2991,"la2":30.254,"lo1":-89.0895,"lo2":-89.0444,"dy":0.0017,"dx":0.0017,"nx":28,"ny":28,"refTime":"2023-08-09T09:00:00:Z","depth":0,"parameterNumber":2,"parameterNumberName":"U-component_of_WINDS"},"data":[0,0,0,0,0,0,0,0,0,0,0,0,0,0,0,0,0,0,0,0,0,0,0,0,0,0,0,0,0,0,0,0,0,0,0,0,0,0,0,0,0,0,0,0,0,0,0,0,0,0,0,0,0,0,0,0,0,0,1.1369,1.1371,0,1.1559,1.1561,1.1563,1.1643,1.1642,1.1642,1.1642,1.1839,1.1845,1.185,0,0,0,0,0,0,0,0,0,0,0,0,0,1.1076,1.1081,1.1368,1.1371,1.1373,1.1559,1.1561,1.1564,1.1643,1.1642,1.1642,1.1642,1.1838,1.1844,1.1851,0,0,0,0,0,0,0,0,0,0,0,0,0,1.1228,1.1082,1.1368,1.1435,1.1443,1.1558,1.1561,1.1565,1.1643,1.1642,1.1642,1.1641,1.1835,1.1844,1.1852,1.1916,0,0,1.1878,1.1881,0,0,0,0,0,0,0,0,1.1219,1.1239,1.1423,1.143,1.144,1.1577,1.1531,1.1682,1.1643,1.1567,1.1642,1.1641,1.1753,1.1768,1.1805,1.1925,1.1933,1.1878,1.1884,1.1887,1.189,0,0,0,0,0,0,0,1.1209,1.1231,1.1444,1.1425,1.1436,1.1456,1.1477,1.156,1.1661,1.1574,1.158,1.1601,1.1757,1.1797,1.181,1.1936,1.1878,1.1886,1.1891,1.1894,1.212,1.212,0,0,0,0,0,0,1.1187,1.1222,1.1438,1.145,1.1326,1.1462,1.1486,1.1533,1.166,1.1679,1.1601,1.1604,1.1782,1.18,1.1817,1.1901,1.1887,1.1895,1.19,1.2119,1.212,1.2121,0,0,0,0,0,0,1.118,1.1205,1.143,1.1338,1.1368,1.1468,1.1521,1.1537,1.1577,1.1681,1.17,1.1623,1.1783,1.1805,1.1891,1.1909,1.1899,1.1906,1.2118,1.2119,1.212,1.2068,0,0,0,0,0,0,1.1171,1.1202,1.1227,1.1337,1.1372,1.1499,1.1522,1.1541,1.1591,1.1596,1.1706,1.1724,1.1784,1.1878,1.1899,1.1921,1.1913,1.2116,1.2118,1.212,1.2069,1.2068,1.2067,0,0,0,0,0,1.1161,1.1205,1.1228,1.1253,1.1405,1.15,1.152,1.1587,1.1592,1.1618,1.1685,1.1721,1.1903,1.1886,1.1911,1.1935,1.2116,1.2118,1.212,1.2069,1.2068,1.2067,0,0,0,0,0,0,1.1095,1.1221,1.1247,1.1329,1.1403,1.1513,1.1548,1.1584,1.1659,1.1661,1.1742,1.1766,1.1845,1.1899,1.1876,1.2004,1.2012,1.202,1.1966,1.1965,1.1964,1.195,1.192,0,0,0,0,0,1.109,1.1156,1.1262,1.1324,1.136,1.1447,1.1491,1.1537,1.1617,1.1649,1.1723,1.18,1.1876,1.1924,1.1998,1.2077,1.2103,1.2106,1.2105,1.2104,1.2109,1.2156,1.2159,1.2128,1.2128,1.2127,0,0,1.108,1.1157,1.1194,1.1313,1.1376,1.1443,1.1473,1.1543,1.1594,1.166,1.1745,1.1802,1.1894,1.1976,1.2016,1.2023,1.2123,1.2106,1.2104,1.2111,1.2158,1.2161,1.2163,1.2129,1.2129,1.2128,0,0,1.1097,1.1161,1.122,1.1282,1.1377,1.1435,1.1449,1.1554,1.1594,1.168,1.1731,1.1794,1.1921,1.1985,1.2034,1.2075,1.2111,1.2098,1.2093,1.2137,1.2139,1.2142,1.2157,1.2162,1.2103,1.2102,1.2102,0,1.1073,1.1175,1.1245,1.1313,1.1364,1.1426,1.1487,1.1544,1.1659,1.1693,1.1699,1.1861,1.1928,1.2026,1.2036,1.2073,1.2093,1.2086,1.2133,1.2137,1.214,1.2156,1.2161,1.21,1.21,1.2101,1.2101,0,1.1142,1.1212,1.1249,1.1357,1.1412,1.1476,1.1556,1.1604,1.1645,1.1702,1.179,1.1872,1.1965,1.1991,1.2032,1.2096,1.2098,1.2117,1.2128,1.214,1.2156,1.2162,1.2097,1.2098,1.2098,1.2099,0,0,1.1122,1.1269,1.1281,1.1331,1.1441,1.1497,1.1564,1.1654,1.1694,1.1771,1.183,1.1936,1.1955,1.2011,1.2059,1.2098,1.2126,1.2114,1.2117,1.2114,1.2203,1.2188,1.2194,1.2151,1.2152,1.2153,1.2196,0,1.1154,1.1276,1.1341,1.1435,1.1502,1.1562,1.1621,1.1695,1.175,1.1816,1.1878,1.1952,1.1971,1.2006,1.2047,1.2114,1.2146,1.2112,1.2207,1.221,1.2182,1.2202,1.2186,1.2222,1.2202,1.2203,1.2204,0,1.1207,1.1283,1.1384,1.1486,1.1517,1.1568,1.1656,1.1718,1.1803,1.1841,1.1903,1.1951,1.2025,1.2029,1.2132,1.2108,1.2151,1.219,1.2193,1.2205,1.2208,1.2215,1.2235,1.2241,1.2215,1.2214,1.2213,0,1.1184,1.1311,1.1388,1.1429,1.155,1.1585,1.1637,1.1722,1.1772,1.185,1.1883,1.1968,1.2015,1.208,1.215,1.2147,1.2247,1.2257,1.2282,1.228,1.2301,1.2298,1.2328,1.2327,1.2327,1.2326,1.2326,0,1.1213,1.1272,1.1379,1.1426,1.1495,1.157,1.1636,1.1694,1.1769,1.1829,1.1886,1.1942,1.2031,1.2097,1.2153,1.223,1.2251,1.2284,1.2299,1.228,1.2276,1.2309,1.2309,1.2328,1.2328,1.2327,1.2327,0,1.1198,1.1272,1.136,1.1467,1.1496,1.1542,1.1635,1.1683,1.1742,1.1818,1.184,1.1932,1.2014,1.209,1.2199,1.2236,1.2315,1.2333,1.2286,1.2293,1.2314,1.2311,1.2367,1.2379,1.2368,1.2368,1.2368,0,1.1212,1.1259,1.1372,1.1416,1.1467,1.1537,1.1589,1.1665,1.1716,1.1817,1.1854,1.194,1.2013,1.2141,1.2218,1.2302,1.2323,1.2337,1.2336,1.2316,1.2324,1.2321,1.2326,1.2335,1.2335,1.2335,1.2335,0,1.1229,1.1263,1.1335,1.142,1.1479,1.155,1.1622,1.1656,1.1745,1.1801,1.1884,1.1941,1.2052,1.2137,1.223,1.2285,1.2325,1.2334,1.2345,1.2326,1.2297,1.2314,1.2283,1.2333,1.2333,1.2333,1.2333,1.2333,1.123,1.1275,1.1361,1.1439,1.1502,1.1568,1.162,1.1685,1.1756,1.1852,1.1893,1.1978,1.2063,1.2192,1.2247,1.2315,1.2324,1.2338,1.2342,1.2345,1.2342,1.2286,1.2332,1.2332,1.2333,1.2333,1.2333,0,1.125,1.1309,1.138,1.148,1.1541,1.1573,1.1655,1.1705,1.1779,1.1855,1.1925,1.2022,1.2105,1.2189,1.2276,1.2315,1.2336,1.2336,1.2334,1.2346,1.2328,1.2311,1.2317,1.2317,1.2317,1.2317,1.2317,1.2317,1.1268,1.1346,1.1391,1.1501,1.156,1.1643,1.1688,1.175,1.1811,1.1916,1.1985,1.2039,1.2119,1.2212,1.229,1.2313,1.2343,1.2337,1.2365,1.2347,1.2347,1.2348,1.2332,1.2343,1.2343,1.2378,1.2378,1.2378]},{"header":{"parameterUnit":"m.s-1","parameterCategory":1,"la1":30.2991,"la2":30.254,"lo1":-89.0895,"lo2":-89.0444,"dy":0.0017,"dx":0.0017,"nx":28,"ny":28,"refTime":"2023-08-09T09:00:00:Z","depth":0,"parameterNumber":3,"parameterNumberName":"V-component_of_WINDS"},"data":[0,0,0,0,0,0,0,0,0,0,0,0,0,0,0,0,0,0,0,0,0,0,0,0,0,0,0,0,0,0,0,0,0,0,0,0,0,0,0,0,0,0,0,0,0,0,0,0,0,0,0,0,0,0,0,0,0,0,5.7257,5.7256,0,5.725,5.725,5.725,5.7215,5.7214,5.7214,5.7213,5.7206,5.7206,5.7207,0,0,0,0,0,0,0,0,0,0,0,0,0,5.7239,5.724,5.7257,5.7256,5.7256,5.725,5.725,5.725,5.7215,5.7214,5.7213,5.7212,5.7206,5.7206,5.7207,0,0,0,0,0,0,0,0,0,0,0,0,0,5.7241,5.724,5.7257,5.7238,5.7237,5.725,5.725,5.725,5.7216,5.7214,5.7213,5.7212,5.7205,5.7206,5.7207,5.7237,0,0,5.721,5.721,0,0,0,0,0,0,0,0,5.7241,5.7242,5.7241,5.724,5.7238,5.7232,5.7241,5.7246,5.7216,5.7224,5.7213,5.7211,5.7216,5.7216,5.7217,5.7237,5.7237,5.721,5.721,5.7211,5.7211,0,0,0,0,0,0,0,5.7241,5.7242,5.7254,5.7241,5.7239,5.7231,5.723,5.7242,5.7227,5.7223,5.722,5.722,5.7214,5.7216,5.7217,5.7237,5.721,5.7211,5.7211,5.7212,5.7282,5.7283,0,0,0,0,0,0,5.7243,5.7242,5.7254,5.7254,5.7236,5.7232,5.7231,5.7235,5.7226,5.7224,5.7221,5.7218,5.7215,5.7216,5.7216,5.7251,5.7211,5.7212,5.7212,5.7281,5.7282,5.7284,0,0,0,0,0,0,5.7243,5.7245,5.7254,5.7247,5.7248,5.7234,5.7239,5.7236,5.7238,5.7225,5.7222,5.7226,5.7214,5.7215,5.7233,5.7251,5.7212,5.7213,5.7279,5.7281,5.7283,5.7322,0,0,0,0,0,0,5.7243,5.7245,5.7256,5.7248,5.7248,5.7271,5.724,5.7237,5.7239,5.7236,5.7229,5.7226,5.7213,5.7231,5.7233,5.7251,5.7213,5.7277,5.728,5.7282,5.7319,5.7325,5.733,0,0,0,0,0,5.7242,5.7267,5.7257,5.7258,5.7262,5.7272,5.7272,5.7257,5.7241,5.7252,5.7244,5.7227,5.7249,5.7234,5.7235,5.7254,5.7276,5.7279,5.7282,5.7317,5.7324,5.733,0,0,0,0,0,0,5.7277,5.7266,5.7254,5.7277,5.7276,5.7266,5.728,5.7265,5.7268,5.7265,5.7246,5.7245,5.7265,5.7261,5.7245,5.7283,5.7259,5.7263,5.7285,5.7292,5.7297,5.7298,5.7214,0,0,0,0,0,5.7288,5.7297,5.7286,5.7307,5.7307,5.7294,5.7297,5.7286,5.7284,5.7283,5.7277,5.7275,5.7282,5.7287,5.7292,5.7319,5.7317,5.7332,5.7338,5.7343,5.7346,5.736,5.7367,5.7294,5.7294,5.7294,0,0,5.7309,5.7304,5.7311,5.7314,5.7312,5.7322,5.7293,5.7305,5.7312,5.7285,5.7301,5.7297,5.7294,5.7316,5.7326,5.7314,5.7366,5.7346,5.735,5.7351,5.7364,5.7371,5.7377,5.7296,5.7295,5.7295,0,0,5.7353,5.735,5.7368,5.7366,5.7364,5.7355,5.7359,5.7352,5.7348,5.7364,5.7344,5.7353,5.7364,5.7364,5.7365,5.741,5.7395,5.7413,5.7442,5.7456,5.7462,5.7467,5.7484,5.749,5.7416,5.7416,5.7416,0,5.738,5.7394,5.7378,5.7392,5.7394,5.7371,5.7389,5.7388,5.7387,5.7389,5.7376,5.7391,5.7387,5.741,5.7421,5.7422,5.7427,5.7413,5.7463,5.7468,5.7472,5.7488,5.7494,5.7418,5.7418,5.7418,5.7418,0,5.7428,5.7438,5.7453,5.7453,5.7457,5.7473,5.746,5.7466,5.7454,5.7447,5.7464,5.746,5.7464,5.7469,5.7457,5.749,5.7482,5.7466,5.7442,5.7482,5.7496,5.7502,5.7422,5.7421,5.742,5.742,0,0,5.7492,5.7485,5.7491,5.7491,5.7487,5.7495,5.751,5.7515,5.7521,5.7521,5.7533,5.7545,5.753,5.7531,5.752,5.7533,5.757,5.7515,5.7515,5.7525,5.7606,5.7618,5.7625,5.7559,5.756,5.7561,5.7606,0,5.7535,5.756,5.7547,5.7574,5.7584,5.7562,5.7575,5.7574,5.7568,5.7576,5.7569,5.7577,5.7557,5.7558,5.757,5.7563,5.7586,5.7559,5.7571,5.7571,5.7572,5.7633,5.7645,5.7688,5.7612,5.7612,5.7613,0,5.7588,5.7591,5.762,5.7615,5.7618,5.7631,5.7634,5.7642,5.7641,5.7636,5.7638,5.7624,5.7638,5.7615,5.7635,5.7618,5.7622,5.7619,5.762,5.7621,5.7595,5.7635,5.7701,5.7707,5.7622,5.7621,5.762,0,5.7632,5.7645,5.7663,5.7664,5.7659,5.7668,5.7667,5.7664,5.7668,5.7672,5.7674,5.768,5.7682,5.7687,5.7675,5.7658,5.7697,5.7672,5.7693,5.7693,5.7701,5.7701,5.7769,5.7704,5.7704,5.7704,5.7704,0,5.7681,5.7699,5.7683,5.7695,5.7715,5.77,5.772,5.7716,5.7715,5.7725,5.7707,5.7717,5.77,5.7709,5.7699,5.7718,5.7719,5.7716,5.7713,5.7717,5.7718,5.7719,5.7716,5.7706,5.7705,5.7705,5.7705,0,5.7734,5.7724,5.7743,5.7738,5.7737,5.7752,5.7747,5.7757,5.775,5.7764,5.7766,5.7756,5.7765,5.7754,5.7762,5.7755,5.7781,5.7773,5.7781,5.7779,5.7801,5.7799,5.7872,5.7881,5.7811,5.7811,5.7812,0,5.7766,5.778,5.7776,5.7782,5.7782,5.7791,5.7796,5.7782,5.7787,5.7788,5.7799,5.7807,5.7812,5.7828,5.7821,5.7827,5.782,5.7846,5.7821,5.7826,5.7821,5.7821,5.7822,5.7851,5.7851,5.7852,5.7853,0,5.7824,5.7819,5.7826,5.7832,5.7838,5.7842,5.7844,5.785,5.7836,5.7843,5.7853,5.7857,5.7866,5.7875,5.7879,5.7877,5.7863,5.7861,5.7866,5.787,5.7875,5.7873,5.7795,5.7859,5.7858,5.7858,5.7857,5.7857,5.7867,5.7879,5.7878,5.7887,5.7888,5.7891,5.7901,5.7896,5.7904,5.7911,5.7902,5.7914,5.7914,5.7919,5.7919,5.7928,5.7917,5.7925,5.7927,5.7929,5.7933,5.7873,5.7929,5.7929,5.7929,5.7929,5.7928,0,5.7924,5.7923,5.7932,5.7937,5.7944,5.793,5.7933,5.794,5.7951,5.7952,5.7959,5.797,5.7978,5.7973,5.798,5.7988,5.7982,5.7991,5.799,5.799,5.7942,5.7937,5.7996,5.7996,5.7996,5.7996,5.7996,5.7996,5.7955,5.7974,5.7969,5.7989,5.7987,5.8,5.8002,5.8005,5.8006,5.802,5.8027,5.8024,5.8022,5.8029,5.8036,5.8034,5.8038,5.8049,5.8045,5.8,5.7993,5.7987,5.7982,5.805,5.805,5.8092,5.8093,5.8093]}]]